sat.trackr.live / text

‹ back to catalog

HAWK-10A

NORAD 60540 · 2024-149CA

PAYLOAD ACTIVE UNKNOWN

§ Identity

Operator
Country
US
Launch date
2024-08-16
Launch site
AFWTR
Launch vehicle
Mass (kg)
RCS (m²)

External: N2YO · Heavens-Above · Gunter

§ Orbital elements

Epoch: 2026-05-25T02:25:35.205888Z

Period
96.23 min
Inclination
97.6899°
Eccentricity
0.0004635
Mean motion
14.96430722 rev/d
Perigee alt
574.7 km
Apogee alt
581.2 km
Semi-major
6,956.1 km
B*
1.5420e-4
RAAN
221.4098°
Arg perigee
131.1051°
Mean anomaly
229.0571°
Rev number
9,653

§ Raw data

HAWK-10A1 60540U 24149CA  26145.10110192  .00001691  00000+0  15420-3 0  99992 60540  97.6899 221.4098 0004635 131.1051 229.0571 14.96430722 96538

JSON: /api/v1/satellites/60540 · /tle

For live sub-satellite position, see the globe view (requires WebGL).

§ Visibility from observer

Set your observer location to see the next 7 days of passes ≥ 10°. The values pass through the URL so the page stays shareable.

No JS? Fill the form by hand. The geolocation button needs JavaScript.